CDT,Max TemperatureF,Mean TemperatureF,Min TemperatureF,Max Dew PointF,MeanDew PointF,Min DewpointF,Max Humidity, Mean Humidity, Min Humidity, Max Sea Level PressureIn, Mean Sea Level PressureIn, Min Sea Level PressureIn, Max VisibilityMiles, Mean VisibilityMiles, Min VisibilityMiles, Max Wind SpeedMPH, Mean Wind SpeedMPH, Max Gust SpeedMPH,PrecipitationIn, CloudCover, Events, WindDirDegrees
2012-10-1,76,60,44,51,45,38,98,60,33,29.97,29.92,29.87,10,10,10,22,8,30,0.00,0,,327
2012-10-2,73,56,39,41,37,32,83,61,23,29.99,29.93,29.86,10,10,10,9,5,,0.00,0,,299
2012-10-3,81,58,35,42,37,33,97,53,19,29.93,29.86,29.77,10,10,9,20,5,25,0.00,0,,158
2012-10-4,61,52,46,45,38,30,82,61,39,30.31,30.15,29.92,10,10,10,23,13,32,0.05,3,Rain-Thunderstorm,323
2012-10-5,51,42,32,32,28,22,85,62,34,30.36,30.32,30.27,10,10,10,13,7,,0.00,1,,316
2012-10-6,48,36,25,26,23,19,79,53,41,30.40,30.34,30.31,10,10,10,13,8,22,0.00,2,,318
2012-10-7,57,38,19,29,24,17,92,56,27,30.33,30.20,30.04,10,10,10,14,4,23,0.00,0,,218
2012-10-8,71,53,36,34,32,30,79,49,22,30.04,29.90,29.79,10,10,10,18,9,24,0.00,0,,184
2012-10-9,55,48,38,43,32,22,76,53,33,30.15,29.95,29.79,10,10,10,20,7,23,0.00,1,,320
2012-10-10,64,45,26,29,27,22,85,52,25,30.26,30.16,30.06,10,10,10,13,4,,0.00,0,,211
2012-10-11,67,50,34,38,32,24,83,53,31,30.36,30.13,30.03,10,10,10,16,7,26,0.00,3,,53
2012-10-12,57,46,35,46,30,20,73,47,28,30.38,30.23,30.01,10,10,10,17,11,24,0.00,6,Rain,111
2012-10-13,74,64,53,66,58,46,100,90,67,30.01,29.76,29.54,10,7,0,21,8,26,0.86,7,Rain-Thunderstorm,143
2012-10-14,66,57,48,63,55,37,100,86,36,29.98,29.68,29.57,10,7,2,23,9,29,0.70,6,Rain-Thunderstorm,337
2012-10-15,73,55,37,47,42,37,100,70,33,30.00,29.91,29.75,10,9,2,12,3,,0.00,1,,124
2012-10-16,79,62,46,50,47,44,94,63,28,29.72,29.52,29.39,10,10,7,13,7,,0.00,0,,206
2012-10-17,68,60,51,52,41,22,90,54,29,29.59,29.46,29.30,10,10,2,30,12,37,0.08,3,Rain,280
2012-10-18,52,48,44,42,34,22,88,63,31,29.63,29.54,29.49,10,10,10,30,21,43,0.38,4,Rain,289
2012-10-19,47,46,38,41,40,36,92,81,71,29.84,29.75,29.66,10,10,10,28,19,40,0.01,7,Rain,316
2012-10-20,66,49,32,49,38,32,100,83,39,29.94,29.81,29.69,10,7,0,15,2,20,0.00,0,Fog,131
2012-10-21,81,62,44,64,55,42,90,75,51,29.78,29.74,29.68,10,10,10,16,9,25,0.00,2,Thunderstorm,119
2012-10-22,68,62,56,66,61,55,100,89,77,29.78,29.74,29.70,10,10,6,12,6,,0.05,7,Rain-Thunderstorm,355
2012-10-23,79,66,53,64,57,54,100,92,56,29.82,29.74,29.61,10,8,1,10,6,,0.00,7,Fog,216
2012-10-24,62,55,48,60,54,46,100,96,90,29.89,29.74,29.70,10,4,0,12,5,20,0.06,7,Fog-Rain,350
2012-10-25,47,42,35,46,38,25,100,87,60,30.37,29.88,29.67,10,8,3,30,14,37,0.72,8,Rain-Thunderstorm,327
2012-10-26,44,35,28,28,25,23,84,64,52,30.54,30.46,30.35,10,10,10,14,7,,0.00,6,,322
2012-10-27,45,34,23,30,25,21,91,69,47,30.45,30.37,30.29,10,10,10,7,3,,0.00,2,,116
2012-10-28,52,42,32,32,30,28,85,62,44,30.36,30.29,30.24,10,10,2,13,6,17,0.00,3,,126
2012-10-29,57,49,41,32,30,28,66,52,38,30.26,30.18,30.11,10,10,10,21,12,29,0.00,3,,125
2012-10-30,55,44,35,31,29,26,77,61,37,30.13,30.09,30.05,10,10,10,10,8,,0.00,3,,87
2012-10-31,59,44,28,37,31,27,95,72,37,30.10,30.05,29.99,10,10,10,7,1,,0.00,1,,273